When you browse on this site, cookies collect data to enhance your experience and personalize the content and advertising you see.
Visit our Privacy Policy to learn more. By continuing to use the site, you agree to this use of cookies and data.

Hourly Weather Aluksne

Today, 7 August, Friday

Time Temperature Precipitation Wind Pressure Humidity
00:00 +15°C° 0 mm 1 mps 751 mmHg 93%
01:00 +15°C° 0 mm 1 mps 752 mmHg 94%
02:00 +15°C° 0 mm 2 mps 752 mmHg 96%
03:00 +14°C° 0 mm 2 mps 752 mmHg 96%
04:00 +14°C° 0 mm 2 mps 752 mmHg 96%
05:00 +14°C° 0 mm 1 mps 752 mmHg 95%
06:00 +16°C° 0 mm 2 mps 752 mmHg 89%
07:00 +17°C° 0 mm 2 mps 752 mmHg 82%
08:00 +19°C° 0 mm 2 mps 753 mmHg 75%
09:00 +20°C° 0 mm 2 mps 753 mmHg 71%
10:00 +23°C° 0 mm 2 mps 753 mmHg 67%
11:00 +24°C° 0 mm 2 mps 753 mmHg 63%
12:00 +24°C° 0 mm 2 mps 753 mmHg 62%
13:00 +24°C° 0 mm 2 mps 753 mmHg 62%
14:00 +25°C° 0 mm 2 mps 752 mmHg 61%
15:00 +24°C° 0 mm 2 mps 752 mmHg 64%
16:00 +24°C° 0 mm 1 mps 752 mmHg 67%
17:00 +24°C° 0 mm 1 mps 752 mmHg 70%
18:00 +23°C° 0 mm 1 mps 752 mmHg 74%
19:00 +21°C° 0 mm 1 mps 752 mmHg 78%
20:00 +20°C° 0 mm 1 mps 752 mmHg 82%
21:00 +19°C° 0 mm 1 mps 752 mmHg 85%
22:00 +16°C° 0 mm 0 mps 752 mmHg 88%
23:00 +16°C° 0 mm 0 mps 752 mmHg 92%

Tomorrow, 8 August, Saturday

Time Temperature Precipitation Wind Pressure Humidity
00:00 +15°C° 0 mm 0 mps 752 mmHg 92%
01:00 +15°C° 0 mm 0 mps 752 mmHg 93%
02:00 +15°C° 0 mm 0 mps 752 mmHg 93%
03:00 +14°C° 0 mm 0 mps 752 mmHg 94%
04:00 +14°C° 0 mm 0 mps 752 mmHg 94%
05:00 +14°C° 0 mm 0 mps 751 mmHg 94%
06:00 +16°C° 0 mm 0 mps 752 mmHg 87%
07:00 +18°C° 0 mm 0 mps 752 mmHg 80%
08:00 +20°C° 0 mm 0 mps 752 mmHg 72%
09:00 +22°C° 0 mm 0 mps 752 mmHg 67%
10:00 +23°C° 0 mm 0 mps 752 mmHg 62%
11:00 +27°C° 0 mm 1 mps 751 mmHg 57%
12:00 +25°C° 0 mm 0 mps 751 mmHg 58%
13:00 +24°C° 0 mm 0 mps 751 mmHg 58%
14:00 +24°C° 0 mm 0 mps 750 mmHg 59%
15:00 +24°C° 0 mm 0 mps 750 mmHg 61%
16:00 +26°C° 0 mm 1 mps 750 mmHg 62%
17:00 +25°C° 0 mm 1 mps 749 mmHg 64%
18:00 +24°C° 0 mm 1 mps 749 mmHg 70%
19:00 +22°C° 0 mm 1 mps 749 mmHg 77%
20:00 +20°C° 0 mm 1 mps 749 mmHg 83%
21:00 +18°C° 0 mm 0 mps 749 mmHg 86%
22:00 +17°C° 0 mm 0 mps 749 mmHg 88%
23:00 +16°C° 0 mm 0 mps 749 mmHg 91%

Day after tomorrow, 9 August, Sunday

Time Temperature Precipitation Wind Pressure Humidity
00:00 +16°C° 0 mm 0 mps 748 mmHg 91%
01:00 +15°C° 0 mm 0 mps 748 mmHg 92%
02:00 +15°C° 0 mm 0 mps 748 mmHg 93%
03:00 +15°C° 0 mm 0 mps 748 mmHg 94%
04:00 +15°C° 0 mm 0 mps 748 mmHg 94%
05:00 +15°C° 0 mm 0 mps 748 mmHg 94%
06:00 +17°C° 0 mm 0 mps 748 mmHg 87%
07:00 +19°C° 0 mm 0 mps 748 mmHg 80%
08:00 +21°C° 0 mm 0 mps 748 mmHg 73%
09:00 +23°C° 0 mm 0 mps 748 mmHg 67%
10:00 +26°C° 0 mm 1 mps 748 mmHg 60%
11:00 +28°C° 0 mm 1 mps 748 mmHg 53%
12:00 +28°C° 0 mm 1 mps 748 mmHg 51%
13:00 +28°C° 0 mm 1 mps 747 mmHg 49%
14:00 +29°C° 0 mm 1 mps 747 mmHg 46%
15:00 +28°C° 0 mm 1 mps 747 mmHg 49%
16:00 +28°C° 0 mm 1 mps 746 mmHg 52%
17:00 +27°C° 0 mm 1 mps 746 mmHg 55%
18:00 +25°C° 0.3 mm 1 mps 746 mmHg 65%
19:00 +23°C° 0.3 mm 1 mps 746 mmHg 74%
20:00 +21°C° 0.3 mm 1 mps 746 mmHg 84%
21:00 +20°C° 0.1 mm 1 mps 746 mmHg 86%
22:00 +19°C° 0.1 mm 1 mps 746 mmHg 88%
23:00 +17°C° 0.1 mm 0 mps 746 mmHg 90%

10 August, Monday

Time Temperature Precipitation Wind Pressure Humidity
00:00 +18°C° 0.1 mm 1 mps 746 mmHg 92%
01:00 +18°C° 0.1 mm 1 mps 746 mmHg 93%
02:00 +16°C° 0.1 mm 1 mps 745 mmHg 95%
03:00 +16°C° 0 mm 1 mps 745 mmHg 95%
04:00 +16°C° 0 mm 1 mps 745 mmHg 95%
05:00 +16°C° 0 mm 1 mps 745 mmHg 96%
06:00 +18°C° 0 mm 1 mps 745 mmHg 92%
07:00 +19°C° 0 mm 1 mps 745 mmHg 88%
08:00 +21°C° 0 mm 1 mps 745 mmHg 84%
09:00 +21°C° 0 mm 2 mps 745 mmHg 75%
10:00 +24°C° 0 mm 2 mps 746 mmHg 66%
11:00 +26°C° 0 mm 2 mps 746 mmHg 57%
12:00 +26°C° 0.1 mm 2 mps 745 mmHg 57%
13:00 +26°C° 0.1 mm 3 mps 745 mmHg 57%
14:00 +27°C° 0.1 mm 3 mps 745 mmHg 57%
15:00 +26°C° 0.1 mm 3 mps 745 mmHg 57%
16:00 +25°C° 0.1 mm 3 mps 745 mmHg 58%
17:00 +25°C° 0.1 mm 3 mps 745 mmHg 59%
18:00 +22°C° 0 mm 3 mps 745 mmHg 62%
19:00 +19°C° 0 mm 3 mps 745 mmHg 65%
20:00 +17°C° 0 mm 2 mps 745 mmHg 68%
21:00 +16°C° 0 mm 2 mps 745 mmHg 72%
22:00 +15°C° 0 mm 2 mps 745 mmHg 75%
23:00 +14°C° 0 mm 1 mps 746 mmHg 79%

11 August, Tuesday

Time Temperature Precipitation Wind Pressure Humidity
00:00 +13°C° 0 mm 1 mps 746 mmHg 83%
01:00 +13°C° 0 mm 2 mps 746 mmHg 88%
02:00 +12°C° 0 mm 2 mps 746 mmHg 92%
03:00 +12°C° 0 mm 2 mps 746 mmHg 93%
04:00 +12°C° 0 mm 2 mps 746 mmHg 95%
05:00 +12°C° 0 mm 2 mps 746 mmHg 96%
06:00 +13°C° 0 mm 2 mps 747 mmHg 88%
07:00 +14°C° 0 mm 3 mps 747 mmHg 79%
08:00 +17°C° 0 mm 3 mps 747 mmHg 70%
09:00 +18°C° 0 mm 3 mps 747 mmHg 65%
10:00 +19°C° 0 mm 3 mps 747 mmHg 59%
11:00 +20°C° 0 mm 4 mps 747 mmHg 53%
12:00 +20°C° 0 mm 4 mps 747 mmHg 54%
13:00 +20°C° 0 mm 4 mps 747 mmHg 54%
14:00 +20°C° 0 mm 4 mps 747 mmHg 55%
15:00 +19°C° 0 mm 4 mps 747 mmHg 57%
16:00 +19°C° 0 mm 4 mps 747 mmHg 59%
17:00 +18°C° 0 mm 4 mps 747 mmHg 62%
18:00 +17°C° 0 mm 3 mps 747 mmHg 68%
19:00 +14°C° 0 mm 3 mps 747 mmHg 73%
20:00 +14°C° 0 mm 2 mps 747 mmHg 79%
21:00 +13°C° 0 mm 2 mps 747 mmHg 83%
22:00 +12°C° 0 mm 2 mps 748 mmHg 87%
23:00 +10°C° 0 mm 2 mps 748 mmHg 91%

12 August, Wednesday

Time Temperature Precipitation Wind Pressure Humidity
00:00 +10°C° 0 mm 2 mps 748 mmHg 93%
01:00 +9°C° 0 mm 2 mps 748 mmHg 94%
02:00 +9°C° 0 mm 2 mps 748 mmHg 96%
03:00 +8°C° 0 mm 2 mps 748 mmHg 96%
04:00 +8°C° 0 mm 2 mps 748 mmHg 96%
05:00 +8°C° 0 mm 2 mps 748 mmHg 96%
06:00 +10°C° 0 mm 2 mps 748 mmHg 87%
07:00 +12°C° 0 mm 3 mps 749 mmHg 78%
08:00 +14°C° 0 mm 3 mps 749 mmHg 69%
09:00 +16°C° 0 mm 3 mps 749 mmHg 62%
10:00 +17°C° 0 mm 3 mps 749 mmHg 55%
11:00 +18°C° 0 mm 3 mps 749 mmHg 48%
12:00 +19°C° 0 mm 3 mps 749 mmHg 47%
13:00 +19°C° 0 mm 3 mps 749 mmHg 46%
14:00 +19°C° 0 mm 3 mps 748 mmHg 46%
15:00 +19°C° 0 mm 3 mps 748 mmHg 48%
16:00 +19°C° 0 mm 3 mps 748 mmHg 51%
17:00 +18°C° 0 mm 3 mps 748 mmHg 54%
18:00 +17°C° 0 mm 2 mps 748 mmHg 62%
19:00 +15°C° 0 mm 2 mps 748 mmHg 70%
20:00 +13°C° 0 mm 1 mps 748 mmHg 78%
21:00 +13°C° 0 mm 1 mps 748 mmHg 80%
22:00 +12°C° 0 mm 1 mps 748 mmHg 83%
23:00 +11°C° 0 mm 1 mps 748 mmHg 86%
Show more